COSMOS 2251 DEB, 33797

Orbit data source: Space-Track

COSMOS 2251 DEB, 33797 is space debris in LEO originally from a launch on Wed, 16 Jun 1993 UTC launched from the Plesetsk Missile And Space Complex (PKMTR). The debris from Iridium 33, an American commercial communications satellite, has been tracked extensively since its accidental collision with the defunct Russian satellite Cosmos 2251 in 2009. This event, occurring at high speed in low Earth orbit (LEO), generated thousands of pieces of space debris, significantly increasing the risk of further collisions. The Iridium 33 debris cloud has impacted space traffic management and orbital debris mitigation strategies, making it a subject of ongoing study in space situational awareness.

Loading next visibility...
Identifier
33797, 1993-036AN
Orbit
LEO
Country
Flag of CISCIS
Related business
Manufacturer
Unknown
Mission
Spacecraft
Bus & Motor
Unknown
Mass
Unknown
Launch date (UTC)
1993-06-16 (33 years ago)
Launch vehicle
Unknown
Launch site
Plesetsk Missile And Space Complex (PKMTR)
Object type
Payload
Rocket body
Debris
Shape & HBR
Unknown shape, 0.3 m
Radar Cross Section
Medium (>0.1 m² and <1 m²)

Expand to show TLE details & history
Last TLE update: 11 hours ago

TLE from 11 hours ago
0 COSMOS 2251 DEB
1 33797U 93036AN  26206.59888241  .00001319  00000-0  28132-3 0  9994
2 33797  74.0475 327.2480 0062231 356.7831  14.1084 14.58759046922630
Epoch: 2026-07-25T14:22Z
TLE epoch observation values (Epoch: 2026-07-25T14:22:23.440Z)
Latitude
10.58972°
Longitude
171.38834°
Altitude
656.376 km
Speed
7.553 km/s
True Right ascension
22h 01m 10s
True Declination
10° 31' 37"
Sunlit
Object was in full shadow at epoch
Visualization orbit readout
Latitude
Unknown
Longitude
Unknown
Altitude
Unknown
Speed
Unknown
Apparent Right ascension
Unknown
Apparent Declination
Unknown
Sunlit
N/A
Visualization observer readout
Local Sidereal Time
14:07:10
Azimuth
Unknown
Elevation
Unknown
Doppler factor
Unknown
Orbital elements
Apogee altitude
738.797 km
Perigee altitude
650.766 km
Semi-major axis
7,072.919 km
Eccentricity
0.00622
Inclination
74.0475°
RAAN
327.248°
Arg. of periapsis
356.7831°
True anomaly
14.28355°
Mean anomaly
14.1084°
Eccentric anomaly
14.19584°
Mean motion
3.64876 °/min
Orbital period
98.66 mins
BSTAR
0.00028132

Documentation

Showing up to 5 results
|